Miscellaneous Local Product
Issued by NWS Hastings, NE

Home | Current Version | Previous Version | Graphics & Text | Print | Product List | Glossary On
Versions: 1 2 3 4 5 6 7 8 9 10 11 12 13 14 15 16 17 18 19 20 21 22 23 24 25 26 27 28 29 30 31 32 33 34 35 36 37 38 39 40 41 42 43 44 45 46 47 48 49 50
000
AXUS43 KGID 300002
MISGRI

GID CWA HOURLY WEATHER ROUNDUP
NATIONAL WEATHER SERVICE HASTINGS NE
700 PM CDT SAT AUG 29 2015

NOTE: "FAIR" INDICATES FEW OR NO CLOUDS BELOW 12,000 FEET WITH NO
SIGNIFICANT WEATHER AND/OR OBSTRUCTIONS TO VISIBILITY.

...SOUTH CENTRAL NEBRASKA...

CITY           SKY/WX    TMP DP  RH WIND       PRES   REMARKS
GRAND ISLAND   SUNNY     78  63  59 SE5       30.04F
HASTINGS       MOSUNNY   78  62  57 E6        30.04F
KEARNEY        SUNNY     79  63  57 SE6       30.04F
ORD            SUNNY     82  55  39 S9        30.01S
YORK           MOSUNNY   73  66  78 E5        30.04S
AURORA         SUNNY     74  68  80 SE3       30.04S
LEXINGTON      MOSUNNY   81  64  57 SE9       30.05S
HOLDREGE       SUNNY     80  62  54 E7        30.05F
HEBRON         MOSUNNY   77  63  60 NE3       30.03S

...NEBRASKA PANHANDLE...

CITY           SKY/WX    TMP DP  RH WIND       PRES   REMARKS
CHADRON        SUNNY     92  44  19 S14       29.95F HAZE
ALLIANCE       SUNNY     89  36  15 S12       30.04F
SCOTTSBLUFF    SUNNY     88  42  20 SE13      30.02F HAZE
SIDNEY         SUNNY     89  38  16 SE15      30.09F

...WESTERN AND NORTH CENTRAL NEBRASKA...

CITY           SKY/WX    TMP DP  RH WIND       PRES   REMARKS
VALENTINE      SUNNY     89  53  29 S10       29.97F
AINSWORTH      SUNNY     83  63  49 S6        30.00F
ONEILL         SUNNY     81  65  59 S6        30.00F
BROKEN BOW     SUNNY     82  64  54 SE6       30.03F
IMPERIAL       SUNNY     88  48  25 SE9       30.05F
NORTH PLATTE   SUNNY     80  66  62 SE9       30.03F
MCCOOK         MOSUNNY   86  57  37 E10       30.04S

...EASTERN NEBRASKA...

CITY           SKY/WX    TMP DP  RH WIND       PRES   REMARKS
NORFOLK        SUNNY     75  66  73 SE6       30.02F
TEKAMAH        MOSUNNY   69  64  84 S3        30.03F
COLUMBUS       SUNNY    N/A N/A N/A E3        30.03S
ALBION         SUNNY     76  66  70 SE5       30.03S
OMAHA EPPLEY   CLOUDY    72  64  76 N3        30.03S
OFFUTT AFB     MOSUNNY   69  63  79 S1        30.02F
MILLARD        MOSUNNY   71  63  76 S5        30.03F
LINCOLN        MOSUNNY   70  62  76 E6        30.04F
NEBRASKA CITY  CLOUDY    67  62  84 CALM      30.04S
BEATRICE       SUNNY     69  62  80 E5        30.04S
FALLS CITY     CLOUDY    67  62  84 N3        30.03F

...NORTHERN KANSAS...

CITY           SKY/WX    TMP DP  RH WIND       PRES   REMARKS
GOODLAND       SUNNY     87  39  18 S9        30.09F
HILL CITY      SUNNY     86  54  33 E7        30.04F
NORTON         CLEAR     81  50  34 E6        30.04S
PHILLIPSBURG   SUNNY     86  54  32 E7        30.04S
SMITH CENTER   SUNNY     79  61  53 E7        30.04S
HAYS           SUNNY     84  54  34 E9        30.03S
RUSSELL        SUNNY     80  62  54 E8        30.02S
CONCORDIA      SUNNY     73  64  73 E5        30.03S
SALINA         MOSUNNY   73  62  68 NE7       30.03S
TOPEKA         CLOUDY    74  66  76 NE5       30.01S



USA.gov is the U.S. government's official web portal to all federal, state and local government web resources and services.